Time,TemperatureF,DewpointF,PressureIn,WindDirection,WindDirectionDegrees,WindSpeedMPH,WindSpeedGustMPH,Humidity,HourlyPrecipIn,Conditions,Clouds,dailyrainin,SoftwareType,DateUTC
2013-04-16 00:03:00,58.0,46.0,-100.00,South,170,4.0,9.0,63,0.00,,,-99.99,,2013-04-16 04:03:00,
2013-04-16 00:12:00,57.0,46.0,-100.00,SSE,160,3.0,10.0,65,0.00,,,-99.99,,2013-04-16 04:12:00,
2013-04-16 00:23:00,58.0,46.0,-100.00,SSE,165,4.0,9.0,64,0.00,,,-99.99,,2013-04-16 04:23:00,
2013-04-16 00:33:00,58.0,46.0,-100.00,SSE,165,6.0,11.0,64,0.00,,,-99.99,,2013-04-16 04:33:00,
2013-04-16 00:42:00,58.0,46.0,-100.00,SE,145,6.0,13.0,64,0.00,,,-99.99,,2013-04-16 04:42:00,
2013-04-16 00:52:00,57.0,46.0,-100.00,SE,145,4.0,14.0,65,0.00,,,-99.99,,2013-04-16 04:52:00,
2013-04-16 01:02:00,57.0,46.0,-100.00,South,170,6.0,11.0,65,0.00,,,-99.99,,2013-04-16 05:02:00,
2013-04-16 01:12:00,57.0,46.0,-100.00,SSW,200,2.0,9.0,66,0.00,,,-99.99,,2013-04-16 05:12:00,
2013-04-16 01:22:00,57.0,46.0,-100.00,South,180,3.0,8.0,67,0.00,,,-99.99,,2013-04-16 05:22:00,
2013-04-16 01:32:00,56.0,46.0,-100.00,South,170,4.0,9.0,67,0.00,,,-99.99,,2013-04-16 05:32:00,
2013-04-16 01:42:00,57.0,46.0,-100.00,South,175,4.0,11.0,67,0.00,,,-99.99,,2013-04-16 05:42:00,
2013-04-16 01:52:00,56.0,46.0,-100.00,SSE,165,5.0,9.0,68,0.00,,,-99.99,,2013-04-16 05:52:00,
2013-04-16 02:02:00,56.0,46.0,-100.00,South,170,4.0,8.0,69,0.00,,,-99.99,,2013-04-16 06:02:00,
2013-04-16 02:12:00,56.0,46.0,-100.00,SSE,150,3.0,9.0,70,0.00,,,-99.99,,2013-04-16 06:12:00,
2013-04-16 02:22:00,56.0,46.0,-100.00,South,175,3.0,7.0,71,0.00,,,-99.99,,2013-04-16 06:22:00,
2013-04-16 02:32:00,56.0,47.0,-100.00,South,170,4.0,7.0,71,0.00,,,-99.99,,2013-04-16 06:32:00,
2013-04-16 02:42:00,56.0,47.0,-100.00,South,170,5.0,9.0,71,0.00,,,-99.99,,2013-04-16 06:42:00,
2013-04-16 02:52:00,55.0,47.0,-100.00,South,180,2.0,9.0,72,0.00,,,-99.99,,2013-04-16 06:52:00,
2013-04-16 03:02:00,55.0,47.0,-100.00,South,170,4.0,8.0,72,0.00,,,-99.99,,2013-04-16 07:02:00,
2013-04-16 03:12:00,55.0,47.0,-100.00,SSE,150,3.0,9.0,73,0.00,,,-99.99,,2013-04-16 07:12:00,
2013-04-16 03:22:00,55.0,47.0,-100.00,South,170,2.0,7.0,73,0.00,,,-99.99,,2013-04-16 07:22:00,
2013-04-16 03:32:00,55.0,47.0,-100.00,SSE,150,4.0,7.0,73,0.00,,,-99.99,,2013-04-16 07:32:00,
2013-04-16 03:42:00,55.0,47.0,-100.00,SE,145,4.0,11.0,73,0.00,,,-99.99,,2013-04-16 07:42:00,
2013-04-16 03:53:00,55.0,47.0,-100.00,South,170,4.0,9.0,74,0.00,,,-99.99,,2013-04-16 07:53:00,
2013-04-16 04:02:00,55.0,47.0,-100.00,SSE,155,4.0,7.0,75,0.00,,,-99.99,,2013-04-16 08:02:00,
2013-04-16 04:12:00,55.0,47.0,-100.00,South,170,4.0,9.0,74,0.00,,,-99.99,,2013-04-16 08:12:00,
2013-04-16 04:22:00,55.0,47.0,-100.00,SSE,165,2.0,6.0,74,0.00,,,-99.99,,2013-04-16 08:22:00,
2013-04-16 04:32:00,55.0,47.0,-100.00,South,180,3.0,7.0,75,0.00,,,-99.99,,2013-04-16 08:32:00,
2013-04-16 04:42:00,55.0,47.0,-100.00,South,190,4.0,7.0,75,0.00,,,-99.99,,2013-04-16 08:42:00,
2013-04-16 04:52:00,55.0,47.0,-100.00,SE,145,3.0,8.0,76,0.00,,,-99.99,,2013-04-16 08:52:00,
2013-04-16 05:02:00,55.0,47.0,-100.00,South,185,3.0,7.0,76,0.00,,,-99.99,,2013-04-16 09:02:00,
2013-04-16 05:12:00,55.0,47.0,-100.00,South,175,4.0,7.0,76,0.00,,,-99.99,,2013-04-16 09:12:00,
2013-04-16 05:22:00,55.0,47.0,-100.00,South,175,5.0,11.0,76,0.00,,,-99.99,,2013-04-16 09:22:00,
2013-04-16 05:33:00,55.0,47.0,-100.00,South,175,4.0,9.0,76,0.00,,,-99.99,,2013-04-16 09:33:00,
2013-04-16 05:42:00,55.0,48.0,-100.00,SSW,195,4.0,9.0,76,0.00,,,-99.99,,2013-04-16 09:42:00,
2013-04-16 05:52:00,55.0,48.0,-100.00,SSW,200,4.0,9.0,76,0.00,,,-99.99,,2013-04-16 09:52:00,
2013-04-16 06:03:00,55.0,48.0,-100.00,South,180,6.0,11.0,76,0.00,,,-99.99,,2013-04-16 10:03:00,
2013-04-16 06:13:00,55.0,48.0,-100.00,South,180,4.0,11.0,76,0.00,,,-99.99,,2013-04-16 10:13:00,
2013-04-16 06:23:00,55.0,48.0,-100.00,South,170,5.0,10.0,76,0.00,,,-99.99,,2013-04-16 10:23:00,
2013-04-16 06:33:00,56.0,48.0,-100.00,South,175,5.0,13.0,76,0.00,,,-99.99,,2013-04-16 10:33:00,
2013-04-16 06:42:00,55.0,48.0,-100.00,SSW,200,4.0,14.0,76,0.00,,,-99.99,,2013-04-16 10:42:00,
2013-04-16 06:52:00,56.0,48.0,-100.00,South,180,6.0,11.0,76,0.00,,,-99.99,,2013-04-16 10:52:00,
2013-04-16 07:03:00,56.0,48.0,-100.00,SSW,200,6.0,12.0,76,0.00,,,-99.99,,2013-04-16 11:03:00,
2013-04-16 07:12:00,56.0,49.0,-100.00,SSW,205,6.0,12.0,76,0.00,,,-99.99,,2013-04-16 11:12:00,
2013-04-16 07:22:00,56.0,49.0,-100.00,SW,215,6.0,13.0,75,0.00,,,-99.99,,2013-04-16 11:22:00,
2013-04-16 07:32:00,56.0,49.0,-100.00,SW,215,7.0,12.0,75,0.00,,,-99.99,,2013-04-16 11:32:00,
2013-04-16 07:42:00,56.0,49.0,-100.00,SSW,205,6.0,14.0,75,0.00,,,-99.99,,2013-04-16 11:42:00,
2013-04-16 07:52:00,57.0,49.0,-100.00,SSW,210,5.0,12.0,74,0.00,,,-99.99,,2013-04-16 11:52:00,
2013-04-16 08:02:00,57.0,49.0,-100.00,SSW,205,7.0,16.0,74,0.00,,,-99.99,,2013-04-16 12:02:00,
2013-04-16 08:12:00,58.0,49.0,-100.00,SW,215,7.0,14.0,73,0.00,,,-99.99,,2013-04-16 12:12:00,
2013-04-16 08:22:00,58.0,49.0,-100.00,SW,215,7.0,12.0,72,0.00,,,-99.99,,2013-04-16 12:22:00,
2013-04-16 08:32:00,58.0,50.0,-100.00,SSW,205,5.0,11.0,73,0.00,,,-99.99,,2013-04-16 12:32:00,
2013-04-16 08:42:00,59.0,50.0,-100.00,SW,215,7.0,14.0,71,0.00,,,-99.99,,2013-04-16 12:42:00,
2013-04-16 08:52:00,59.0,50.0,-100.00,SW,235,7.0,12.0,72,0.00,,,-99.99,,2013-04-16 12:52:00,
2013-04-16 09:02:00,59.0,50.0,-100.00,SW,220,9.0,14.0,71,0.00,,,-99.99,,2013-04-16 13:02:00,
2013-04-16 09:12:00,60.0,50.0,-100.00,SW,215,7.0,17.0,70,0.00,,,-99.99,,2013-04-16 13:12:00,
2013-04-16 09:22:00,61.0,51.0,-100.00,SW,230,8.0,13.0,69,0.00,,,-99.99,,2013-04-16 13:22:00,
2013-04-16 09:32:00,63.0,51.0,-100.00,WSW,245,7.0,16.0,66,0.00,,,-99.99,,2013-04-16 13:32:00,
2013-04-16 09:42:00,62.0,51.0,-100.00,SW,215,10.0,18.0,66,0.00,,,-99.99,,2013-04-16 13:42:00,
2013-04-16 09:52:00,62.0,51.0,-100.00,SW,220,6.0,20.0,66,0.00,,,-99.99,,2013-04-16 13:52:00,
2013-04-16 10:02:00,63.0,51.0,-100.00,SW,235,9.0,14.0,66,0.00,,,-99.99,,2013-04-16 14:02:00,
2013-04-16 10:12:00,64.0,51.0,-100.00,SW,225,7.0,14.0,64,0.00,,,-99.99,,2013-04-16 14:12:00,
2013-04-16 10:22:00,64.0,51.0,-100.00,SW,220,6.0,15.0,64,0.00,,,-99.99,,2013-04-16 14:22:00,
2013-04-16 10:32:00,64.0,51.0,-100.00,SW,230,10.0,16.0,64,0.00,,,-99.99,,2013-04-16 14:32:00,
2013-04-16 10:42:00,65.0,52.0,-100.00,SW,220,9.0,19.0,61,0.00,,,-99.99,,2013-04-16 14:42:00,
2013-04-16 10:52:00,65.0,52.0,-100.00,SW,225,10.0,22.0,63,0.00,,,-99.99,,2013-04-16 14:52:00,
2013-04-16 11:02:00,65.0,52.0,-100.00,WSW,240,14.0,19.0,63,0.00,,,-99.99,,2013-04-16 15:02:00,
2013-04-16 11:12:00,65.0,53.0,-100.00,SW,220,9.0,21.0,63,0.00,,,-99.99,,2013-04-16 15:12:00,
2013-04-16 11:22:00,65.0,52.0,-100.00,SW,225,9.0,14.0,63,0.00,,,-99.99,,2013-04-16 15:22:00,
2013-04-16 11:33:00,65.0,53.0,-100.00,SW,235,7.0,16.0,64,0.00,,,-99.99,,2013-04-16 15:33:00,
2013-04-16 11:43:00,65.0,53.0,-100.00,WSW,240,11.0,17.0,63,0.00,,,-99.99,,2013-04-16 15:43:00,
2013-04-16 11:53:00,66.0,53.0,-100.00,SW,230,10.0,17.0,63,0.00,,,-99.99,,2013-04-16 15:53:00,
2013-04-16 12:03:00,66.0,53.0,-100.00,WSW,250,9.0,17.0,62,0.00,,,-99.99,,2013-04-16 16:03:00,
2013-04-16 12:13:00,66.0,53.0,-100.00,SW,235,12.0,21.0,63,0.00,,,-99.99,,2013-04-16 16:13:00,
2013-04-16 12:23:00,67.0,53.0,-100.00,SW,235,10.0,18.0,62,0.00,,,-99.99,,2013-04-16 16:23:00,
2013-04-16 12:32:00,67.0,54.0,-100.00,WSW,255,7.0,14.0,62,0.00,,,-99.99,,2013-04-16 16:32:00,
2013-04-16 12:42:00,67.0,54.0,-100.00,SW,235,12.0,19.0,62,0.00,,,-99.99,,2013-04-16 16:42:00,
2013-04-16 12:52:00,67.0,54.0,-100.00,SW,230,8.0,19.0,62,0.00,,,-99.99,,2013-04-16 16:52:00,
2013-04-16 13:02:00,67.0,54.0,-100.00,West,260,9.0,16.0,62,0.00,,,-99.99,,2013-04-16 17:02:00,
2013-04-16 13:12:00,67.0,54.0,-100.00,WSW,240,9.0,16.0,62,0.00,,,-99.99,,2013-04-16 17:12:00,
2013-04-16 13:22:00,67.0,54.0,-100.00,SW,215,7.0,19.0,62,0.00,,,-99.99,,2013-04-16 17:22:00,
2013-04-16 13:32:00,68.0,54.0,-100.00,WSW,245,9.0,13.0,60,0.00,,,-99.99,,2013-04-16 17:32:00,
2013-04-16 13:43:00,68.0,54.0,-100.00,SSW,200,10.0,17.0,61,0.00,,,-99.99,,2013-04-16 17:43:00,
2013-04-16 13:53:00,69.0,55.0,-100.00,SW,220,9.0,18.0,62,0.00,,,-99.99,,2013-04-16 17:53:00,
2013-04-16 14:02:00,69.0,56.0,-100.00,SW,235,7.0,13.0,62,0.00,,,-99.99,,2013-04-16 18:02:00,
2013-04-16 14:12:00,69.0,55.0,-100.00,SW,225,9.0,17.0,60,0.00,,,-99.99,,2013-04-16 18:12:00,
2013-04-16 14:22:00,70.0,55.0,-100.00,SSW,205,9.0,16.0,59,0.00,,,-99.99,,2013-04-16 18:22:00,
2013-04-16 14:32:00,71.0,56.0,-100.00,SW,215,7.0,19.0,59,0.00,,,-99.99,,2013-04-16 18:32:00,
2013-04-16 14:42:00,71.0,56.0,-100.00,SW,215,6.0,19.0,58,0.00,,,-99.99,,2013-04-16 18:42:00,
2013-04-16 14:52:00,71.0,56.0,-100.00,SW,220,7.0,14.0,58,0.00,,,-99.99,,2013-04-16 18:52:00,
2013-04-16 15:02:00,71.0,57.0,-100.00,WSW,250,9.0,16.0,59,0.00,,,-99.99,,2013-04-16 19:02:00,
2013-04-16 15:12:00,73.0,55.0,-100.00,SW,225,7.0,14.0,53,0.00,,,-99.99,,2013-04-16 19:12:00,
2013-04-16 15:22:00,73.0,56.0,-100.00,SW,220,11.0,15.0,56,0.00,,,-99.99,,2013-04-16 19:22:00,
2013-04-16 15:32:00,74.0,56.0,-100.00,WSW,240,6.0,16.0,53,0.00,,,-99.99,,2013-04-16 19:32:00,
2013-04-16 15:42:00,74.0,56.0,-100.00,WSW,245,12.0,19.0,53,0.00,,,-99.99,,2013-04-16 19:42:00,
2013-04-16 15:52:00,74.0,55.0,-100.00,SW,230,10.0,17.0,51,0.00,,,-99.99,,2013-04-16 19:52:00,
2013-04-16 16:02:00,74.0,56.0,-100.00,SW,235,9.0,18.0,51,0.00,,,-99.99,,2013-04-16 20:02:00,
2013-04-16 16:12:00,74.0,56.0,-100.00,WSW,245,12.0,17.0,51,0.00,,,-99.99,,2013-04-16 20:12:00,
2013-04-16 16:22:00,74.0,55.0,-100.00,SW,215,7.0,18.0,52,0.00,,,-99.99,,2013-04-16 20:22:00,
2013-04-16 16:32:00,76.0,56.0,-100.00,West,280,9.0,14.0,49,0.00,,,-99.99,,2013-04-16 20:32:00,
2013-04-16 16:42:00,75.0,55.0,-100.00,SW,235,9.0,19.0,50,0.00,,,-99.99,,2013-04-16 20:42:00,
2013-04-16 16:52:00,75.0,55.0,-100.00,SW,230,7.0,19.0,50,0.00,,,-99.99,,2013-04-16 20:52:00,
2013-04-16 17:02:00,76.0,55.0,-100.00,West,275,13.0,24.0,47,0.00,,,-99.99,,2013-04-16 21:02:00,
2013-04-16 17:12:00,76.0,54.0,-100.00,West,275,13.0,22.0,46,0.00,,,-99.99,,2013-04-16 21:12:00,
2013-04-16 17:22:00,76.0,55.0,-100.00,WSW,245,10.0,19.0,47,0.00,,,-99.99,,2013-04-16 21:22:00,
2013-04-16 17:32:00,76.0,55.0,-100.00,WSW,245,9.0,17.0,48,0.00,,,-99.99,,2013-04-16 21:32:00,
2013-04-16 17:43:00,75.0,54.0,-100.00,West,260,10.0,23.0,47,0.00,,,-99.99,,2013-04-16 21:43:00,
2013-04-16 17:53:00,75.0,55.0,-100.00,West,270,7.0,16.0,48,0.00,,,-99.99,,2013-04-16 21:53:00,
2013-04-16 18:03:00,75.0,54.0,-100.00,West,270,9.0,13.0,48,0.00,,,-99.99,,2013-04-16 22:03:00,
2013-04-16 18:13:00,75.0,55.0,-100.00,WNW,285,7.0,14.0,48,0.00,,,-99.99,,2013-04-16 22:13:00,
2013-04-16 18:22:00,74.0,55.0,-100.00,WNW,290,6.0,10.0,50,0.00,,,-99.99,,2013-04-16 22:22:00,
2013-04-16 18:33:00,74.0,55.0,-100.00,WNW,295,6.0,9.0,51,0.00,,,-99.99,,2013-04-16 22:33:00,
2013-04-16 18:42:00,71.0,57.0,-100.00,North,350,21.0,27.0,60,0.00,,,-99.99,,2013-04-16 22:42:00,
2013-04-16 18:52:00,67.0,58.0,-100.00,NW,325,12.0,21.0,71,1.69,,,-99.99,,2013-04-16 22:52:00,
2013-04-16 19:02:00,67.0,58.0,-100.00,NNW,340,15.0,19.0,73,0.00,,,-99.99,,2013-04-16 23:02:00,
2013-04-16 19:12:00,64.0,58.0,-100.00,NNW,340,15.0,24.0,81,10.75,,,-99.99,,2013-04-16 23:12:00,
2013-04-16 19:22:00,62.0,57.0,-100.00,North,355,10.0,20.0,83,0.00,,,-99.99,,2013-04-16 23:22:00,
2013-04-16 19:32:00,60.0,55.0,-100.00,NNW,345,12.0,21.0,82,0.00,,,-99.99,,2013-04-16 23:32:00,
2013-04-16 19:42:00,58.0,54.0,-100.00,North,350,12.0,23.0,83,0.00,,,-99.99,,2013-04-16 23:42:00,
2013-04-16 19:52:00,58.0,54.0,-100.00,North,355,6.0,15.0,85,0.00,,,-99.99,,2013-04-16 23:52:00,
2013-04-16 20:02:00,58.0,53.0,-100.00,NNW,330,7.0,14.0,84,0.00,,,-99.99,,2013-04-17 00:02:00,
2013-04-16 20:12:00,57.0,54.0,-100.00,NW,310,7.0,13.0,87,1.10,,,-99.99,,2013-04-17 00:12:00,
2013-04-16 20:22:00,57.0,54.0,-100.00,North,355,6.0,10.0,89,1.10,,,-99.99,,2013-04-17 00:22:00,
2013-04-16 20:32:00,57.0,54.0,-100.00,NNW,340,6.0,13.0,90,0.55,,,-99.99,,2013-04-17 00:32:00,
2013-04-16 20:42:00,56.0,53.0,-100.00,North,0,7.0,10.0,89,2.83,,,-99.99,,2013-04-17 00:42:00,
2013-04-16 20:52:00,55.0,53.0,-100.00,North,0,5.0,11.0,90,1.10,,,-99.99,,2013-04-17 00:52:00,
2013-04-16 21:02:00,55.0,52.0,-100.00,North,5,6.0,7.0,90,0.55,,,-99.99,,2013-04-17 01:02:00,
2013-04-16 21:12:00,55.0,52.0,-100.00,ESE,105,3.0,6.0,90,0.00,,,-99.99,,2013-04-17 01:12:00,
2013-04-16 21:22:00,55.0,52.0,-100.00,ESE,110,2.0,5.0,90,0.55,,,-99.99,,2013-04-17 01:22:00,
2013-04-16 21:32:00,55.0,52.0,-100.00,NE,40,2.0,4.0,90,1.10,,,-99.99,,2013-04-17 01:32:00,
2013-04-16 21:42:00,54.0,52.0,-100.00,NE,55,4.0,7.0,90,0.00,,,-99.99,,2013-04-17 01:42:00,
2013-04-16 21:52:00,54.0,51.0,-100.00,ENE,60,4.0,9.0,90,0.00,,,-99.99,,2013-04-17 01:52:00,
2013-04-16 22:02:00,54.0,51.0,-100.00,ENE,60,4.0,8.0,91,0.00,,,-99.99,,2013-04-17 02:02:00,
2013-04-16 22:12:00,54.0,51.0,-100.00,ENE,70,4.0,10.0,91,0.00,,,-99.99,,2013-04-17 02:12:00,
2013-04-16 22:22:00,54.0,51.0,-100.00,ENE,70,3.0,7.0,91,0.00,,,-99.99,,2013-04-17 02:22:00,
2013-04-16 22:32:00,54.0,51.0,-100.00,North,5,4.0,6.0,91,0.00,,,-99.99,,2013-04-17 02:32:00,
2013-04-16 22:42:00,53.0,51.0,-100.00,NE,35,5.0,11.0,90,0.00,,,-99.99,,2013-04-17 02:42:00,
2013-04-16 22:52:00,53.0,50.0,-100.00,NNE,30,6.0,11.0,90,0.00,,,-99.99,,2013-04-17 02:52:00,
2013-04-16 23:02:00,53.0,50.0,-100.00,NE,40,2.0,9.0,89,0.00,,,-99.99,,2013-04-17 03:02:00,
2013-04-16 23:12:00,53.0,50.0,-100.00,SE,130,6.0,7.0,90,0.00,,,-99.99,,2013-04-17 03:12:00,
2013-04-16 23:22:00,53.0,50.0,-100.00,SE,130,4.0,7.0,90,0.00,,,-99.99,,2013-04-17 03:22:00,
2013-04-16 23:33:00,53.0,50.0,-100.00,SE,130,4.0,6.0,90,0.00,,,-99.99,,2013-04-17 03:33:00,
2013-04-16 23:42:00,53.0,50.0,-100.00,SE,125,3.0,6.0,90,0.00,,,-99.99,,2013-04-17 03:42:00,
2013-04-16 23:53:00,53.0,50.0,-100.00,SE,135,4.0,7.0,91,0.00,,,-99.99,,2013-04-17 03:53:00,